• In Belgium
  • List of Countries
  • For 7 days
  • Water Temperature
  • Satellite Maps
  • Weather Map
  • Weather Widgets
  • user-avatar
    Login

    Hourly Weather Bastogne

    Today, 20 August, Monday

    Time Temperature Precipitation Wind Pressure Humidity
    00:00 +19°C° 0 mm 5 mps 764 mmHg 91%
    01:00 +19°C° 0 mm 5 mps 764 mmHg 91%
    02:00 +19°C° 0 mm 4 mps 763 mmHg 92%
    03:00 +19°C° 0 mm 3 mps 763 mmHg 93%
    04:00 +20°C° 0 mm 3 mps 764 mmHg 92%
    05:00 +20°C° 0 mm 3 mps 764 mmHg 92%
    06:00 +20°C° 0 mm 3 mps 764 mmHg 91%
    07:00 +20°C° 0 mm 3 mps 764 mmHg 89%
    08:00 +20°C° 0 mm 2 mps 764 mmHg 87%
    09:00 +21°C° 0 mm 2 mps 765 mmHg 86%
    10:00 +21°C° 0 mm 2 mps 765 mmHg 84%
    11:00 +21°C° 0 mm 2 mps 765 mmHg 82%
    12:00 +21°C° 0 mm 2 mps 765 mmHg 81%
    13:00 +23°C° 0 mm 2 mps 765 mmHg 79%
    14:00 +23°C° 0 mm 2 mps 765 mmHg 77%
    15:00 +23°C° 0 mm 2 mps 765 mmHg 76%
    16:00 +23°C° 0 mm 2 mps 765 mmHg 77%
    17:00 +21°C° 0 mm 2 mps 765 mmHg 79%
    18:00 +22°C° 0 mm 1 mps 764 mmHg 80%
    19:00 +21°C° 0 mm 1 mps 765 mmHg 82%
    20:00 +21°C° 0 mm 1 mps 765 mmHg 84%
    21:00 +20°C° 0 mm 1 mps 765 mmHg 86%
    22:00 +20°C° 0 mm 1 mps 765 mmHg 88%
    23:00 +19°C° 0 mm 1 mps 765 mmHg 89%

    Tomorrow, 21 August, Tuesday

    Time Temperature Precipitation Wind Pressure Humidity
    00:00 +18°C° 0 mm 2 mps 765 mmHg 90%
    01:00 +18°C° 0 mm 2 mps 765 mmHg 91%
    02:00 +17°C° 0 mm 2 mps 765 mmHg 92%
    03:00 +17°C° 0 mm 2 mps 764 mmHg 93%
    04:00 +17°C° 0 mm 2 mps 764 mmHg 92%
    05:00 +18°C° 0 mm 2 mps 764 mmHg 91%
    06:00 +18°C° 0 mm 3 mps 764 mmHg 91%
    07:00 +19°C° 0 mm 3 mps 765 mmHg 87%
    08:00 +21°C° 0 mm 3 mps 765 mmHg 83%
    09:00 +22°C° 0 mm 3 mps 765 mmHg 79%
    10:00 +24°C° 0.1 mm 3 mps 764 mmHg 76%
    11:00 +24°C° 0.1 mm 3 mps 764 mmHg 73%
    12:00 +25°C° 0.1 mm 3 mps 764 mmHg 70%
    13:00 +26°C° 0 mm 3 mps 764 mmHg 68%
    14:00 +26°C° 0 mm 3 mps 763 mmHg 66%
    15:00 +27°C° 0 mm 3 mps 763 mmHg 64%
    16:00 +26°C° 0 mm 3 mps 763 mmHg 69%
    17:00 +25°C° 0 mm 3 mps 763 mmHg 73%
    18:00 +24°C° 0 mm 2 mps 763 mmHg 77%
    19:00 +23°C° 0 mm 2 mps 763 mmHg 81%
    20:00 +20°C° 0 mm 2 mps 763 mmHg 85%
    21:00 +19°C° 0 mm 2 mps 763 mmHg 90%
    22:00 +19°C° 0 mm 3 mps 763 mmHg 90%
    23:00 +18°C° 0 mm 3 mps 763 mmHg 91%

    Day after tomorrow, 22 August, Wednesday

    Time Temperature Precipitation Wind Pressure Humidity
    00:00 +18°C° 0 mm 3 mps 763 mmHg 92%
    01:00 +18°C° 0 mm 3 mps 763 mmHg 92%
    02:00 +17°C° 0 mm 3 mps 763 mmHg 93%
    03:00 +17°C° 0 mm 3 mps 762 mmHg 93%
    04:00 +17°C° 0 mm 3 mps 762 mmHg 93%
    05:00 +17°C° 0 mm 3 mps 762 mmHg 92%
    06:00 +17°C° 0 mm 3 mps 762 mmHg 91%
    07:00 +19°C° 0 mm 3 mps 763 mmHg 84%
    08:00 +21°C° 0 mm 3 mps 763 mmHg 78%
    09:00 +22°C° 0 mm 4 mps 763 mmHg 71%
    10:00 +23°C° 0 mm 4 mps 763 mmHg 69%
    11:00 +23°C° 0 mm 4 mps 762 mmHg 66%
    12:00 +25°C° 0 mm 4 mps 762 mmHg 64%
    13:00 +25°C° 0 mm 4 mps 762 mmHg 63%
    14:00 +26°C° 0 mm 4 mps 762 mmHg 62%
    15:00 +26°C° 0 mm 4 mps 762 mmHg 61%
    16:00 +25°C° 0 mm 4 mps 761 mmHg 65%
    17:00 +23°C° 0 mm 4 mps 761 mmHg 68%
    18:00 +23°C° 0 mm 4 mps 761 mmHg 72%
    19:00 +21°C° 0 mm 4 mps 761 mmHg 77%
    20:00 +20°C° 0 mm 4 mps 762 mmHg 82%
    21:00 +19°C° 0 mm 5 mps 762 mmHg 87%
    22:00 +17°C° 0 mm 5 mps 762 mmHg 88%
    23:00 +18°C° 0 mm 4 mps 761 mmHg 90%

    23 August, Thursday

    Time Temperature Precipitation Wind Pressure Humidity
    00:00 +17°C° 0 mm 4 mps 761 mmHg 92%
    01:00 +17°C° 0 mm 4 mps 761 mmHg 93%
    02:00 +17°C° 0 mm 4 mps 761 mmHg 94%
    03:00 +17°C° 0 mm 4 mps 760 mmHg 96%
    04:00 +17°C° 0.1 mm 4 mps 760 mmHg 95%
    05:00 +18°C° 0.1 mm 4 mps 760 mmHg 94%
    06:00 +19°C° 0.1 mm 4 mps 760 mmHg 93%
    07:00 +19°C° 0.1 mm 4 mps 760 mmHg 90%
    08:00 +19°C° 0.1 mm 3 mps 760 mmHg 88%
    09:00 +20°C° 0.1 mm 3 mps 760 mmHg 86%
    10:00 +20°C° 0.1 mm 3 mps 760 mmHg 84%
    11:00 +20°C° 0.1 mm 4 mps 760 mmHg 82%
    12:00 +20°C° 0.1 mm 4 mps 760 mmHg 80%
    13:00 +20°C° 0 mm 4 mps 760 mmHg 75%
    14:00 +21°C° 0 mm 5 mps 759 mmHg 70%
    15:00 +21°C° 0 mm 5 mps 759 mmHg 66%
    16:00 +20°C° 0 mm 5 mps 759 mmHg 66%
    17:00 +20°C° 0 mm 5 mps 759 mmHg 67%
    18:00 +19°C° 0 mm 6 mps 759 mmHg 68%
    19:00 +17°C° 0.1 mm 6 mps 759 mmHg 73%
    20:00 +16°C° 0.1 mm 6 mps 759 mmHg 77%
    21:00 +15°C° 0.1 mm 7 mps 759 mmHg 82%
    22:00 +15°C° 0.1 mm 7 mps 759 mmHg 83%
    23:00 +15°C° 0.1 mm 6 mps 759 mmHg 83%

    24 August, Friday

    Time Temperature Precipitation Wind Pressure Humidity
    00:00 +15°C° 0.1 mm 6 mps 759 mmHg 84%
    01:00 +14°C° 0.1 mm 6 mps 759 mmHg 81%
    02:00 +14°C° 0.1 mm 6 mps 759 mmHg 79%
    03:00 +14°C° 0.1 mm 6 mps 759 mmHg 76%
    04:00 +14°C° 0 mm 6 mps 759 mmHg 74%
    05:00 +14°C° 0 mm 6 mps 759 mmHg 71%
    06:00 +13°C° 0 mm 6 mps 759 mmHg 69%
    07:00 +14°C° 0.1 mm 6 mps 760 mmHg 66%
    08:00 +15°C° 0.1 mm 6 mps 760 mmHg 63%
    09:00 +16°C° 0.1 mm 7 mps 760 mmHg 60%
    10:00 +16°C° 0.2 mm 7 mps 760 mmHg 59%
    11:00 +17°C° 0.2 mm 7 mps 760 mmHg 58%
    12:00 +17°C° 0.2 mm 7 mps 760 mmHg 57%
    13:00 +17°C° 0.1 mm 7 mps 760 mmHg 55%
    14:00 +17°C° 0.1 mm 6 mps 760 mmHg 53%
    15:00 +17°C° 0.1 mm 6 mps 760 mmHg 51%
    16:00 +17°C° 0.1 mm 6 mps 760 mmHg 54%
    17:00 +16°C° 0.1 mm 5 mps 760 mmHg 57%
    18:00 +15°C° 0.1 mm 5 mps 761 mmHg 60%
    19:00 +14°C° 0.2 mm 5 mps 761 mmHg 62%
    20:00 +14°C° 0.2 mm 5 mps 761 mmHg 65%
    21:00 +13°C° 0.2 mm 5 mps 761 mmHg 67%
    22:00 +13°C° 0.2 mm 5 mps 761 mmHg 69%
    23:00 +12°C° 0.2 mm 5 mps 761 mmHg 71%

    25 August, Saturday

    Time Temperature Precipitation Wind Pressure Humidity
    00:00 +11°C° 0.2 mm 6 mps 761 mmHg 73%
    01:00 +12°C° 0.4 mm 5 mps 761 mmHg 75%
    02:00 +12°C° 0.4 mm 5 mps 761 mmHg 78%
    03:00 +12°C° 0.4 mm 5 mps 761 mmHg 81%
    04:00 +12°C° 0.4 mm 5 mps 761 mmHg 81%
    05:00 +12°C° 0.4 mm 5 mps 761 mmHg 82%
    06:00 +12°C° 0.4 mm 5 mps 761 mmHg 83%
    07:00 +13°C° 0.4 mm 5 mps 761 mmHg 78%
    08:00 +15°C° 0.4 mm 6 mps 762 mmHg 72%
    09:00 +16°C° 0.4 mm 6 mps 762 mmHg 67%
    10:00 +16°C° 0.2 mm 6 mps 761 mmHg 64%
    11:00 +17°C° 0.2 mm 6 mps 761 mmHg 61%
    12:00 +17°C° 0.2 mm 6 mps 761 mmHg 58%
    13:00 +19°C° 0 mm 5 mps 761 mmHg 56%
    14:00 +19°C° 0 mm 4 mps 761 mmHg 54%
    15:00 +19°C° 0 mm 4 mps 761 mmHg 52%
    16:00 +18°C° 0.1 mm 3 mps 761 mmHg 56%
    17:00 +17°C° 0.1 mm 3 mps 761 mmHg 59%
    18:00 +16°C° 0.1 mm 2 mps 761 mmHg 63%
    19:00 +16°C° 0.1 mm 2 mps 761 mmHg 65%
    20:00 +15°C° 0.1 mm 1 mps 762 mmHg 68%
    21:00 +14°C° 0.1 mm 1 mps 762 mmHg 70%
    22:00 +13°C° 0.1 mm 1 mps 762 mmHg 73%
    23:00 +13°C° 0.1 mm 1 mps 762 mmHg 76%
    Show more